Location: Worth Mountain WMA
(34.9569°N, 81.4819°W)
Time: 00:50:33
(UTC-04:00)

GPS 2-05 Rocket1 - Pass Details

Date: 18 August 2017
Orbit: 368 x 437 km, 35.6° (Epoch: 23 September)

Event Time Altitude Azimuth Distance (km) Brightness Sun altitude
Rises 20:49:58 0° 262° (W) 2,359 7.7 -8.5°
Reaches altitude 10° 20:52:07 10° 262° (W) 1,484 6.6 -8.9°
Maximum altitude 20:55:30 88° 345° (NNW) 410 2.7 -9.6°
Enters shadow 20:58:32 12° 82° (E) 1,344 4.8 -10.1°
